Time,TemperatureF,DewpointF,PressureIn,WindDirection,WindDirectionDegrees,WindSpeedMPH,WindSpeedGustMPH,Humidity,HourlyPrecipIn,Conditions,Clouds,dailyrainin,SoftwareType,DateUTC
2013-05-28 00:00:00,58.6,58.6,29.67,East,82,0.0,18.0,100,0.00,,,0.91,Wunderground v.1.15,2013-05-28 05:00:00,
2013-05-28 00:04:00,58.6,58.6,29.66,ENE,61,1.0,18.0,100,0.00,,,0.00,Wunderground v.1.15,2013-05-28 05:04:00,
2013-05-28 00:06:00,58.6,58.6,29.66,ESE,103,2.0,18.0,100,0.00,,,0.00,Wunderground v.1.15,2013-05-28 05:06:00,
2013-05-28 00:08:00,58.6,58.6,29.66,ENE,65,2.0,18.0,100,0.00,,,0.00,Wunderground v.1.15,2013-05-28 05:08:00,
2013-05-28 00:12:00,58.6,58.6,29.65,SE,128,2.0,2.0,100,0.00,,,0.00,Wunderground v.1.15,2013-05-28 05:12:00,
2013-05-28 00:13:00,58.6,58.6,29.65,NE,40,2.0,2.0,100,0.00,,,0.00,Wunderground v.1.15,2013-05-28 05:13:00,
2013-05-28 00:15:00,58.6,58.6,29.65,NE,47,1.0,4.0,100,0.00,,,0.00,Wunderground v.1.15,2013-05-28 05:15:00,
2013-05-28 00:18:00,58.6,58.6,29.65,ENE,63,2.0,4.0,100,0.00,,,0.00,Wunderground v.1.15,2013-05-28 05:18:00,
2013-05-28 00:20:00,58.6,58.6,29.65,NE,54,2.0,2.0,100,0.00,,,0.00,Wunderground v.1.15,2013-05-28 05:20:00,
2013-05-28 00:22:00,58.6,58.6,29.65,NE,46,2.0,3.0,100,0.00,,,0.00,Wunderground v.1.15,2013-05-28 05:22:00,
2013-05-28 00:26:00,58.5,58.5,29.64,ENE,77,3.0,3.0,100,0.00,,,0.00,Wunderground v.1.15,2013-05-28 05:26:00,
2013-05-28 00:28:00,58.5,58.5,29.64,NE,52,3.0,3.0,100,0.00,,,0.00,Wunderground v.1.15,2013-05-28 05:28:00,
2013-05-28 00:30:00,58.5,58.5,29.64,NNE,33,3.0,3.0,100,0.00,,,0.00,Wunderground v.1.15,2013-05-28 05:30:00,
2013-05-28 00:32:00,58.5,58.5,29.64,East,82,3.0,3.0,100,0.00,,,0.00,Wunderground v.1.15,2013-05-28 05:32:00,
2013-05-28 00:34:00,58.4,58.4,29.64,NNE,25,3.0,3.0,100,0.00,,,0.00,Wunderground v.1.15,2013-05-28 05:34:00,
2013-05-28 00:40:00,58.4,58.4,29.63,East,95,3.0,6.0,100,0.00,,,0.00,Wunderground v.1.15,2013-05-28 05:40:00,
2013-05-28 00:42:00,58.4,58.4,29.63,East,94,3.0,6.0,100,0.00,,,0.00,Wunderground v.1.15,2013-05-28 05:42:00,
2013-05-28 00:46:00,58.4,58.4,29.63,NNE,26,3.0,6.0,100,0.00,,,0.00,Wunderground v.1.15,2013-05-28 05:46:00,
2013-05-28 00:50:00,58.4,58.4,29.62,NE,51,3.0,3.0,100,0.00,,,0.00,Wunderground v.1.15,2013-05-28 05:50:00,
2013-05-28 00:54:00,58.4,58.4,29.62,ENE,65,3.0,4.0,100,0.00,,,0.00,Wunderground v.1.15,2013-05-28 05:54:00,
2013-05-28 00:55:00,58.3,58.3,29.63,ENE,65,3.0,4.0,100,0.00,,,0.00,Wunderground v.1.15,2013-05-28 05:55:00,
2013-05-28 00:57:00,58.3,58.3,29.63,NE,56,3.0,4.0,100,0.00,,,0.00,Wunderground v.1.15,2013-05-28 05:57:00,
2013-05-28 01:00:00,58.3,58.3,29.63,ENE,58,3.0,3.0,100,0.00,,,0.00,Wunderground v.1.15,2013-05-28 06:00:00,
2013-05-28 01:02:00,58.3,58.3,29.63,NE,44,3.0,5.0,100,0.00,,,0.00,Wunderground v.1.15,2013-05-28 06:02:00,
2013-05-28 01:04:00,58.2,58.2,29.63,NE,50,3.0,5.0,100,0.00,,,0.00,Wunderground v.1.15,2013-05-28 06:04:00,
2013-05-28 01:06:00,58.2,58.2,29.63,ENE,67,3.0,5.0,100,0.00,,,0.00,Wunderground v.1.15,2013-05-28 06:06:00,
2013-05-28 01:08:00,58.2,58.2,29.63,ENE,65,3.0,5.0,100,0.00,,,0.00,Wunderground v.1.15,2013-05-28 06:08:00,
2013-05-28 01:10:00,58.2,58.2,29.64,ESE,111,3.0,3.0,100,0.00,,,0.00,Wunderground v.1.15,2013-05-28 06:10:00,
2013-05-28 01:12:00,58.1,58.1,29.64,ENE,73,3.0,5.0,100,0.00,,,0.00,Wunderground v.1.15,2013-05-28 06:12:00,
2013-05-28 01:14:00,58.2,58.2,29.64,SE,125,3.0,5.0,100,0.00,,,0.00,Wunderground v.1.15,2013-05-28 06:14:00,
2013-05-28 01:16:00,58.1,58.1,29.64,ESE,123,2.0,5.0,100,0.00,,,0.00,Wunderground v.1.15,2013-05-28 06:16:00,
2013-05-28 01:17:00,58.1,58.1,29.64,NE,48,2.0,5.0,100,0.00,,,0.00,Wunderground v.1.15,2013-05-28 06:17:00,
2013-05-28 01:24:00,58.1,58.1,29.64,ENE,70,2.0,5.0,100,0.00,,,0.00,Wunderground v.1.15,2013-05-28 06:24:00,
2013-05-28 01:26:00,58.1,58.1,29.64,NE,42,2.0,5.0,100,0.00,,,0.00,Wunderground v.1.15,2013-05-28 06:26:00,
2013-05-28 01:28:00,58.1,58.1,29.64,ENE,65,2.0,5.0,100,0.00,,,0.00,Wunderground v.1.15,2013-05-28 06:28:00,
2013-05-28 01:30:00,58.1,58.1,29.64,ENE,65,2.0,2.0,100,0.00,,,0.00,Wunderground v.1.15,2013-05-28 06:30:00,
2013-05-28 01:34:00,58.1,58.1,29.64,ENE,63,1.0,5.0,100,0.00,,,0.00,Wunderground v.1.15,2013-05-28 06:34:00,
2013-05-28 01:36:00,58.0,58.0,29.64,NE,53,1.0,5.0,100,0.00,,,0.00,Wunderground v.1.15,2013-05-28 06:36:00,
2013-05-28 01:38:00,58.1,58.1,29.63,NE,56,0.0,5.0,100,0.00,,,0.00,Wunderground v.1.15,2013-05-28 06:38:00,
2013-05-28 01:39:00,58.0,58.0,29.63,ENE,65,0.0,5.0,100,0.00,,,0.00,Wunderground v.1.15,2013-05-28 06:39:00,
2013-05-28 01:41:00,58.0,58.0,29.63,ENE,63,0.0,5.0,100,0.00,,,0.00,Wunderground v.1.15,2013-05-28 06:41:00,
2013-05-28 01:44:00,58.0,58.0,29.63,ENE,63,0.0,5.0,100,0.00,,,0.00,Wunderground v.1.15,2013-05-28 06:44:00,
2013-05-28 01:46:00,58.0,58.0,29.63,East,94,0.0,5.0,100,0.00,,,0.00,Wunderground v.1.15,2013-05-28 06:46:00,
2013-05-28 01:48:00,58.0,58.0,29.63,East,88,1.0,5.0,100,0.00,,,0.00,Wunderground v.1.15,2013-05-28 06:48:00,
2013-05-28 01:52:00,58.0,58.0,29.63,ESE,105,2.0,5.0,100,0.00,,,0.00,Wunderground v.1.15,2013-05-28 06:52:00,
2013-05-28 01:54:00,57.9,57.9,29.63,ENE,75,2.0,5.0,100,0.00,,,0.00,Wunderground v.1.15,2013-05-28 06:54:00,
2013-05-28 01:58:00,57.9,57.9,29.63,ENE,76,2.0,5.0,100,0.00,,,0.00,Wunderground v.1.15,2013-05-28 06:58:00,
2013-05-28 01:59:00,57.9,57.9,29.62,East,82,2.0,2.0,100,0.00,,,0.00,Wunderground v.1.15,2013-05-28 06:59:00,
2013-05-28 02:01:00,57.9,57.9,29.62,East,91,1.0,5.0,100,0.00,,,0.00,Wunderground v.1.15,2013-05-28 07:01:00,
2013-05-28 02:08:00,57.9,57.9,29.63,East,91,0.0,5.0,100,0.00,,,0.00,Wunderground v.1.15,2013-05-28 07:08:00,
2013-05-28 02:10:00,57.9,57.9,29.63,ESE,122,0.0,5.0,100,0.00,,,0.00,Wunderground v.1.15,2013-05-28 07:10:00,
2013-05-28 02:14:00,57.9,57.9,29.62,ENE,72,0.0,5.0,100,0.00,,,0.00,Wunderground v.1.15,2013-05-28 07:14:00,
2013-05-28 02:16:00,57.9,57.9,29.62,ENE,70,0.0,5.0,100,0.00,,,0.00,Wunderground v.1.15,2013-05-28 07:16:00,
2013-05-28 02:20:00,57.9,57.9,29.62,ENE,77,0.0,5.0,100,0.00,,,0.00,Wunderground v.1.15,2013-05-28 07:20:00,
2013-05-28 02:21:00,57.9,57.9,29.62,ENE,63,1.0,5.0,100,0.00,,,0.00,Wunderground v.1.15,2013-05-28 07:21:00,
2013-05-28 02:23:00,57.9,57.9,29.62,ENE,68,1.0,5.0,100,0.00,,,0.00,Wunderground v.1.15,2013-05-28 07:23:00,
2013-05-28 02:26:00,57.8,57.8,29.62,ENE,71,2.0,5.0,100,0.00,,,0.00,Wunderground v.1.15,2013-05-28 07:26:00,
2013-05-28 02:32:00,57.8,57.8,29.62,NE,55,2.0,5.0,100,0.00,,,0.00,Wunderground v.1.15,2013-05-28 07:32:00,
2013-05-28 02:36:00,57.8,57.8,29.62,East,93,2.0,5.0,100,0.00,,,0.00,Wunderground v.1.15,2013-05-28 07:36:00,
2013-05-28 02:40:00,57.8,57.8,29.62,SE,134,3.0,3.0,100,0.00,,,0.00,Wunderground v.1.15,2013-05-28 07:40:00,
2013-05-28 02:44:00,57.8,57.8,29.62,ENE,67,3.0,5.0,100,0.00,,,0.00,Wunderground v.1.15,2013-05-28 07:44:00,
2013-05-28 02:46:00,57.8,57.8,29.61,East,82,2.0,5.0,100,0.00,,,0.00,Wunderground v.1.15,2013-05-28 07:46:00,
2013-05-28 02:49:00,57.8,57.8,29.62,East,87,3.0,3.0,100,0.00,,,0.00,Wunderground v.1.15,2013-05-28 07:49:00,
2013-05-28 02:52:00,57.8,57.8,29.61,ENE,63,3.0,4.0,100,0.00,,,0.00,Wunderground v.1.15,2013-05-28 07:52:00,
2013-05-28 02:54:00,57.8,57.8,29.61,ENE,64,3.0,5.0,100,0.00,,,0.00,Wunderground v.1.15,2013-05-28 07:54:00,
2013-05-28 02:56:00,57.8,57.8,29.61,East,96,2.0,5.0,100,0.00,,,0.00,Wunderground v.1.15,2013-05-28 07:56:00,
2013-05-28 02:58:00,57.8,57.8,29.61,NE,34,2.0,5.0,100,0.00,,,0.00,Wunderground v.1.15,2013-05-28 07:58:00,
2013-05-28 03:00:00,57.8,57.8,29.61,East,96,2.0,2.0,100,0.00,,,0.00,Wunderground v.1.15,2013-05-28 08:00:00,
2013-05-28 03:02:00,57.8,57.8,29.61,East,98,2.0,3.0,100,0.00,,,0.00,Wunderground v.1.15,2013-05-28 08:02:00,
2013-05-28 03:06:00,57.8,57.8,29.61,East,89,3.0,5.0,100,0.00,,,0.00,Wunderground v.1.15,2013-05-28 08:06:00,
2013-05-28 03:11:00,57.9,57.9,29.60,NE,45,3.0,5.0,100,0.00,,,0.00,Wunderground v.1.15,2013-05-28 08:11:00,
2013-05-28 03:14:00,57.9,57.9,29.60,East,89,3.0,5.0,100,0.00,,,0.00,Wunderground v.1.15,2013-05-28 08:14:00,
2013-05-28 03:16:00,57.9,57.9,29.61,ENE,70,2.0,5.0,100,0.00,,,0.00,Wunderground v.1.15,2013-05-28 08:16:00,
2013-05-28 03:20:00,57.9,57.9,29.61,NNE,22,2.0,5.0,100,0.00,,,0.00,Wunderground v.1.15,2013-05-28 08:20:00,
2013-05-28 03:24:00,57.9,57.9,29.60,East,79,2.0,5.0,100,0.00,,,0.00,Wunderground v.1.15,2013-05-28 08:24:00,
2013-05-28 03:26:00,57.9,57.9,29.60,ENE,62,2.0,5.0,100,0.00,,,0.00,Wunderground v.1.15,2013-05-28 08:26:00,
2013-05-28 03:29:00,57.8,57.8,29.60,ENE,58,2.0,5.0,100,0.00,,,0.00,Wunderground v.1.15,2013-05-28 08:29:00,
2013-05-28 03:31:00,57.8,57.8,29.60,ESE,107,2.0,5.0,100,0.00,,,0.00,Wunderground v.1.15,2013-05-28 08:31:00,
2013-05-28 03:36:00,57.8,57.8,29.60,ENE,65,2.0,5.0,100,0.00,,,0.00,Wunderground v.1.15,2013-05-28 08:36:00,
2013-05-28 03:38:00,57.8,57.8,29.60,NE,50,2.0,5.0,100,0.00,,,0.00,Wunderground v.1.15,2013-05-28 08:38:00,
2013-05-28 03:42:00,57.8,57.8,29.60,NE,50,2.0,5.0,100,0.00,,,0.00,Wunderground v.1.15,2013-05-28 08:42:00,
2013-05-28 03:44:00,57.8,57.8,29.60,ENE,63,2.0,5.0,100,0.00,,,0.00,Wunderground v.1.15,2013-05-28 08:44:00,
2013-05-28 03:46:00,57.7,57.7,29.59,NE,49,2.0,5.0,100,0.00,,,0.00,Wunderground v.1.15,2013-05-28 08:46:00,
2013-05-28 03:48:00,57.7,57.7,29.59,NE,46,3.0,5.0,100,0.00,,,0.00,Wunderground v.1.15,2013-05-28 08:48:00,
2013-05-28 03:50:00,57.7,57.7,29.59,NE,49,3.0,5.0,100,0.00,,,0.00,Wunderground v.1.15,2013-05-28 08:50:00,
2013-05-28 03:51:00,57.7,57.7,29.59,ENE,63,3.0,5.0,100,0.00,,,0.00,Wunderground v.1.15,2013-05-28 08:51:00,
2013-05-28 03:53:00,57.7,57.7,29.59,ENE,70,3.0,5.0,100,0.00,,,0.00,Wunderground v.1.15,2013-05-28 08:53:00,
2013-05-28 03:56:00,57.7,57.7,29.59,ENE,58,3.0,5.0,100,0.00,,,0.00,Wunderground v.1.15,2013-05-28 08:56:00,
2013-05-28 03:58:00,57.7,57.7,29.59,NE,51,3.0,5.0,100,0.00,,,0.00,Wunderground v.1.15,2013-05-28 08:58:00,
2013-05-28 04:00:00,57.7,57.7,29.59,NE,34,3.0,5.0,100,0.00,,,0.00,Wunderground v.1.15,2013-05-28 09:00:00,
2013-05-28 04:02:00,57.7,57.7,29.59,ENE,68,3.0,5.0,100,0.00,,,0.00,Wunderground v.1.15,2013-05-28 09:02:00,
2013-05-28 04:08:00,57.6,57.6,29.59,NE,55,3.0,5.0,100,0.00,,,0.00,Wunderground v.1.15,2013-05-28 09:08:00,
2013-05-28 04:10:00,57.6,57.6,29.60,ESE,115,3.0,3.0,100,0.00,,,0.00,Wunderground v.1.15,2013-05-28 09:10:00,
2013-05-28 04:13:00,57.6,57.6,29.60,ENE,69,2.0,5.0,100,0.00,,,0.00,Wunderground v.1.15,2013-05-28 09:13:00,
2013-05-28 04:15:00,57.6,57.6,29.60,North,6,2.0,5.0,100,0.00,,,0.00,Wunderground v.1.15,2013-05-28 09:15:00,
2013-05-28 04:18:00,57.6,57.6,29.60,ENE,58,2.0,5.0,100,0.00,,,0.00,Wunderground v.1.15,2013-05-28 09:18:00,
2013-05-28 04:20:00,57.6,57.6,29.60,East,91,2.0,5.0,100,0.00,,,0.00,Wunderground v.1.15,2013-05-28 09:20:00,
2013-05-28 04:26:00,57.6,57.6,29.61,NE,53,2.0,5.0,100,0.00,,,0.00,Wunderground v.1.15,2013-05-28 09:26:00,
2013-05-28 04:28:00,57.6,57.6,29.61,ENE,63,2.0,5.0,100,0.00,,,0.00,Wunderground v.1.15,2013-05-28 09:28:00,
2013-05-28 04:30:00,57.6,57.6,29.61,East,86,2.0,5.0,100,0.00,,,0.00,Wunderground v.1.15,2013-05-28 09:30:00,
2013-05-28 04:32:00,57.6,57.6,29.61,ESE,114,2.0,5.0,100,0.00,,,0.00,Wunderground v.1.15,2013-05-28 09:32:00,
2013-05-28 04:33:00,57.6,57.6,29.60,NE,43,2.0,5.0,100,0.00,,,0.00,Wunderground v.1.15,2013-05-28 09:33:00,
2013-05-28 04:35:00,57.6,57.6,29.60,ENE,63,2.0,5.0,100,0.00,,,0.00,Wunderground v.1.15,2013-05-28 09:35:00,
2013-05-28 04:40:00,57.6,57.6,29.60,ENE,61,3.0,3.0,100,0.00,,,0.00,Wunderground v.1.15,2013-05-28 09:40:00,
2013-05-28 04:42:00,57.6,57.6,29.60,NE,48,3.0,5.0,100,0.00,,,0.00,Wunderground v.1.15,2013-05-28 09:42:00,
2013-05-28 04:46:00,57.5,57.5,29.60,ENE,58,4.0,5.0,100,0.00,,,0.00,Wunderground v.1.15,2013-05-28 09:46:00,
2013-05-28 04:48:00,57.5,57.5,29.59,ENE,63,4.0,5.0,100,0.00,,,0.00,Wunderground v.1.15,2013-05-28 09:48:00,
2013-05-28 04:50:00,57.5,57.5,29.60,NNE,33,4.0,5.0,100,0.00,,,0.00,Wunderground v.1.15,2013-05-28 09:50:00,
2013-05-28 04:52:00,57.5,57.5,29.60,NE,37,4.0,5.0,100,0.00,,,0.00,Wunderground v.1.15,2013-05-28 09:52:00,
2013-05-28 04:54:00,57.5,57.5,29.60,ENE,63,4.0,5.0,100,0.00,,,0.00,Wunderground v.1.15,2013-05-28 09:54:00,
2013-05-28 04:57:00,57.5,57.5,29.60,NE,43,4.0,6.0,100,0.00,,,0.00,Wunderground v.1.15,2013-05-28 09:57:00,
2013-05-28 05:00:00,57.5,57.5,29.60,NE,43,4.0,5.0,100,0.00,,,0.00,Wunderground v.1.15,2013-05-28 10:00:00,
2013-05-28 05:02:00,57.5,57.5,29.60,NE,47,5.0,6.0,100,0.00,,,0.00,Wunderground v.1.15,2013-05-28 10:02:00,
2013-05-28 05:04:00,57.5,57.5,29.60,North,10,5.0,6.0,100,0.00,,,0.00,Wunderground v.1.15,2013-05-28 10:04:00,
2013-05-28 05:06:00,57.5,57.5,29.60,NNE,32,5.0,6.0,100,0.00,,,0.00,Wunderground v.1.15,2013-05-28 10:06:00,
2013-05-28 05:08:00,57.5,57.5,29.60,NE,37,5.0,6.0,100,0.00,,,0.00,Wunderground v.1.15,2013-05-28 10:08:00,
2013-05-28 05:12:00,57.5,57.5,29.59,ENE,64,5.0,5.0,100,0.00,,,0.00,Wunderground v.1.15,2013-05-28 10:12:00,
2013-05-28 05:15:00,57.5,57.5,29.59,NE,55,4.0,6.0,100,0.00,,,0.00,Wunderground v.1.15,2013-05-28 10:15:00,
2013-05-28 05:17:00,57.5,57.5,29.59,NE,48,4.0,6.0,100,0.00,,,0.00,Wunderground v.1.15,2013-05-28 10:17:00,
2013-05-28 05:19:00,57.5,57.5,29.59,NE,51,4.0,5.0,100,0.00,,,0.00,Wunderground v.1.15,2013-05-28 10:19:00,
2013-05-28 05:24:00,57.5,57.5,29.59,NE,46,5.0,5.0,100,0.00,,,0.00,Wunderground v.1.15,2013-05-28 10:24:00,
2013-05-28 05:28:00,57.5,57.5,29.59,NNE,30,5.0,5.0,100,0.00,,,0.00,Wunderground v.1.15,2013-05-28 10:28:00,
2013-05-28 05:30:00,57.5,57.5,29.59,NE,37,4.0,5.0,100,0.00,,,0.00,Wunderground v.1.15,2013-05-28 10:30:00,
2013-05-28 05:34:00,57.5,57.5,29.59,NE,56,4.0,5.0,100,0.00,,,0.00,Wunderground v.1.15,2013-05-28 10:34:00,
2013-05-28 05:36:00,57.5,57.5,29.59,NE,46,4.0,5.0,100,0.00,,,0.00,Wunderground v.1.15,2013-05-28 10:36:00,
2013-05-28 05:39:00,57.5,57.5,29.59,NE,39,4.0,4.0,100,0.00,,,0.00,Wunderground v.1.15,2013-05-28 10:39:00,
2013-05-28 05:41:00,57.5,57.5,29.59,NNE,27,4.0,5.0,100,0.00,,,0.00,Wunderground v.1.15,2013-05-28 10:41:00,
2013-05-28 05:46:00,57.4,57.4,29.59,NNE,26,3.0,5.0,100,0.00,,,0.00,Wunderground v.1.15,2013-05-28 10:46:00,
2013-05-28 05:48:00,57.5,57.5,29.59,NE,38,3.0,5.0,100,0.00,,,0.00,Wunderground v.1.15,2013-05-28 10:48:00,
2013-05-28 05:52:00,57.5,57.5,29.59,NNE,29,2.0,5.0,100,0.00,,,0.00,Wunderground v.1.15,2013-05-28 10:52:00,
2013-05-28 05:54:00,57.5,57.5,29.59,North,8,2.0,5.0,100,0.00,,,0.00,Wunderground v.1.15,2013-05-28 10:54:00,
2013-05-28 05:59:00,57.4,57.4,29.59,NE,36,2.0,5.0,100,0.00,,,0.00,Wunderground v.1.15,2013-05-28 10:59:00,
2013-05-28 06:03:00,57.5,57.5,29.59,NNE,29,3.0,5.0,100,0.00,,,0.00,Wunderground v.1.15,2013-05-28 11:03:00,
2013-05-28 06:05:00,57.4,57.4,29.58,NE,34,3.0,5.0,100,0.00,,,0.00,Wunderground v.1.15,2013-05-28 11:05:00,
2013-05-28 06:10:00,57.4,57.4,29.58,NE,39,3.0,5.0,100,0.00,,,0.00,Wunderground v.1.15,2013-05-28 11:10:00,
2013-05-28 06:12:00,57.4,57.4,29.58,NNE,26,3.0,5.0,100,0.00,,,0.00,Wunderground v.1.15,2013-05-28 11:12:00,
2013-05-28 06:16:00,57.4,57.4,29.58,NNE,28,3.0,5.0,100,0.00,,,0.00,Wunderground v.1.15,2013-05-28 11:16:00,
2013-05-28 06:18:00,57.4,57.4,29.59,NNE,30,3.0,5.0,100,0.00,,,0.00,Wunderground v.1.15,2013-05-28 11:18:00,
2013-05-28 06:21:00,57.3,57.3,29.59,NNE,28,3.0,5.0,100,0.00,,,0.00,Wunderground v.1.15,2013-05-28 11:21:00,
2013-05-28 06:25:00,57.3,57.3,29.59,NNE,27,2.0,5.0,100,0.00,,,0.00,Wunderground v.1.15,2013-05-28 11:25:00,
2013-05-28 06:27:00,57.3,57.3,29.59,NNE,26,2.0,5.0,100,0.00,,,0.00,Wunderground v.1.15,2013-05-28 11:27:00,
2013-05-28 06:32:00,57.3,57.3,29.59,NNE,28,2.0,5.0,100,0.00,,,0.00,Wunderground v.1.15,2013-05-28 11:32:00,
2013-05-28 06:34:00,57.3,57.3,29.59,NNE,25,2.0,5.0,100,0.00,,,0.00,Wunderground v.1.15,2013-05-28 11:34:00,
2013-05-28 06:36:00,57.3,57.3,29.59,NNE,25,2.0,5.0,100,0.00,,,0.00,Wunderground v.1.15,2013-05-28 11:36:00,
2013-05-28 06:40:00,57.3,57.3,29.59,NE,43,2.0,2.0,100,0.00,,,0.00,Wunderground v.1.15,2013-05-28 11:40:00,
2013-05-28 06:42:00,57.3,57.3,29.59,NE,43,2.0,5.0,100,0.00,,,0.00,Wunderground v.1.15,2013-05-28 11:42:00,
2013-05-28 06:44:00,57.2,57.2,29.59,NNE,33,1.0,5.0,100,0.00,,,0.00,Wunderground v.1.15,2013-05-28 11:44:00,
2013-05-28 06:45:00,57.2,57.2,29.59,NE,36,1.0,5.0,100,0.00,,,0.00,Wunderground v.1.15,2013-05-28 11:45:00,
2013-05-28 06:47:00,57.2,57.2,29.59,NE,51,1.0,5.0,100,0.00,,,0.00,Wunderground v.1.15,2013-05-28 11:47:00,
2013-05-28 06:52:00,57.2,57.2,29.59,NE,56,2.0,5.0,100,0.00,,,0.00,Wunderground v.1.15,2013-05-28 11:52:00,
2013-05-28 06:54:00,57.2,57.2,29.60,ENE,57,2.0,5.0,100,0.00,,,0.00,Wunderground v.1.15,2013-05-28 11:54:00,
2013-05-28 06:56:00,57.2,57.2,29.60,East,79,1.0,5.0,100,0.00,,,0.00,Wunderground v.1.15,2013-05-28 11:56:00,
2013-05-28 06:58:00,57.2,57.2,29.60,East,93,1.0,5.0,100,0.00,,,0.00,Wunderground v.1.15,2013-05-28 11:58:00,
2013-05-28 07:02:00,57.2,57.2,29.60,ENE,66,1.0,5.0,100,0.00,,,0.00,Wunderground v.1.15,2013-05-28 12:02:00,
2013-05-28 07:06:00,57.2,57.2,29.59,ENE,60,2.0,5.0,100,0.00,,,0.00,Wunderground v.1.15,2013-05-28 12:06:00,
2013-05-28 07:07:00,57.3,57.3,29.59,East,98,2.0,5.0,100,0.00,,,0.00,Wunderground v.1.15,2013-05-28 12:07:00,
2013-05-28 07:12:00,57.3,57.3,29.59,East,96,2.0,5.0,100,0.00,,,0.00,Wunderground v.1.15,2013-05-28 12:12:00,
2013-05-28 07:16:00,57.3,57.3,29.59,NE,41,2.0,5.0,100,0.00,,,0.00,Wunderground v.1.15,2013-05-28 12:16:00,
2013-05-28 07:18:00,57.2,57.2,29.59,ENE,63,2.0,5.0,100,0.00,,,0.00,Wunderground v.1.15,2013-05-28 12:18:00,
2013-05-28 07:20:00,57.2,57.2,29.60,NNE,13,2.0,5.0,100,0.00,,,0.00,Wunderground v.1.15,2013-05-28 12:20:00,
2013-05-28 07:22:00,57.2,57.2,29.60,NNE,15,2.0,7.0,100,0.00,,,0.00,Wunderground v.1.15,2013-05-28 12:22:00,
2013-05-28 07:24:00,57.2,57.2,29.59,NNE,18,3.0,7.0,100,0.00,,,0.00,Wunderground v.1.15,2013-05-28 12:24:00,
2013-05-28 07:28:00,57.1,57.1,29.59,NE,44,4.0,7.0,100,0.00,,,0.00,Wunderground v.1.15,2013-05-28 12:28:00,
2013-05-28 07:31:00,57.1,57.1,29.59,NE,49,4.0,5.0,100,0.00,,,0.00,Wunderground v.1.15,2013-05-28 12:31:00,
2013-05-28 07:34:00,57.1,57.1,29.59,NE,45,3.0,5.0,100,0.00,,,0.00,Wunderground v.1.15,2013-05-28 12:34:00,
2013-05-28 07:38:00,57.1,57.1,29.58,NE,34,2.0,5.0,100,0.00,,,0.00,Wunderground v.1.15,2013-05-28 12:38:00,
2013-05-28 07:40:00,57.1,57.1,29.58,NE,34,2.0,5.0,100,0.00,,,0.00,Wunderground v.1.15,2013-05-28 12:40:00,
2013-05-28 07:42:00,57.1,57.1,29.58,NE,48,3.0,5.0,100,0.00,,,0.00,Wunderground v.1.15,2013-05-28 12:42:00,
2013-05-28 07:46:00,57.1,57.1,29.58,NE,50,3.0,5.0,100,0.00,,,0.00,Wunderground v.1.15,2013-05-28 12:46:00,
2013-05-28 07:48:00,57.0,57.0,29.58,NE,44,3.0,5.0,100,0.00,,,0.00,Wunderground v.1.15,2013-05-28 12:48:00,
2013-05-28 07:49:00,57.0,57.0,29.58,East,86,3.0,3.0,100,0.00,,,0.00,Wunderground v.1.15,2013-05-28 12:49:00,
2013-05-28 07:53:00,57.1,57.1,29.58,ENE,72,3.0,5.0,100,0.00,,,0.00,Wunderground v.1.15,2013-05-28 12:53:00,
2013-05-28 07:55:00,57.1,57.1,29.58,East,84,3.0,5.0,100,0.00,,,0.00,Wunderground v.1.15,2013-05-28 12:55:00,
2013-05-28 08:00:00,57.1,57.1,29.58,East,94,2.0,2.0,100,0.00,,,0.00,Wunderground v.1.15,2013-05-28 13:00:00,
2013-05-28 08:02:00,57.2,57.2,29.58,ESE,108,2.0,5.0,100,0.00,,,0.00,Wunderground v.1.15,2013-05-28 13:02:00,
2013-05-28 08:04:00,57.3,57.3,29.58,East,88,2.0,5.0,100,0.00,,,0.00,Wunderground v.1.15,2013-05-28 13:04:00,
2013-05-28 08:08:00,57.4,57.4,29.58,East,87,1.0,5.0,100,0.00,,,0.00,Wunderground v.1.15,2013-05-28 13:08:00,
2013-05-28 08:10:00,57.5,57.5,29.58,East,88,1.0,1.0,100,0.00,,,0.00,Wunderground v.1.15,2013-05-28 13:10:00,
2013-05-28 08:11:00,57.6,57.6,29.58,East,88,0.0,5.0,100,0.00,,,0.00,Wunderground v.1.15,2013-05-28 13:11:00,
2013-05-28 08:13:00,57.7,57.7,29.59,East,95,0.0,5.0,100,0.00,,,0.00,Wunderground v.1.15,2013-05-28 13:13:00,
2013-05-28 08:15:00,57.8,57.8,29.59,East,95,0.0,5.0,100,0.00,,,0.00,Wunderground v.1.15,2013-05-28 13:15:00,
2013-05-28 08:17:00,57.8,57.8,29.59,East,94,0.0,5.0,100,0.00,,,0.00,Wunderground v.1.15,2013-05-28 13:17:00,
2013-05-28 08:20:00,57.8,57.8,29.59,East,95,0.0,5.0,100,0.00,,,0.00,Wunderground v.1.15,2013-05-28 13:20:00,
2013-05-28 08:22:00,57.8,57.8,29.58,East,84,0.0,5.0,100,0.00,,,0.00,Wunderground v.1.15,2013-05-28 13:22:00,
2013-05-28 08:24:00,57.8,57.8,29.58,SSE,158,0.0,5.0,100,0.00,,,0.00,Wunderground v.1.15,2013-05-28 13:24:00,
2013-05-28 08:28:00,57.9,57.9,29.58,SE,145,0.0,5.0,100,0.00,,,0.00,Wunderground v.1.15,2013-05-28 13:28:00,
2013-05-28 08:30:00,58.0,58.0,29.58,SE,142,1.0,1.0,100,0.00,,,0.00,Wunderground v.1.15,2013-05-28 13:30:00,
2013-05-28 08:33:00,58.3,58.3,29.58,SE,135,1.0,5.0,100,0.00,,,0.00,Wunderground v.1.15,2013-05-28 13:33:00,
2013-05-28 08:35:00,58.4,58.4,29.58,SE,141,1.0,5.0,100,0.00,,,0.00,Wunderground v.1.15,2013-05-28 13:35:00,
2013-05-28 08:37:00,58.6,58.6,29.58,SE,128,1.0,5.0,100,0.00,,,0.00,Wunderground v.1.15,2013-05-28 13:37:00,
2013-05-28 08:39:00,58.8,58.8,29.58,SE,145,1.0,1.0,100,0.00,,,0.00,Wunderground v.1.15,2013-05-28 13:39:00,
2013-05-28 08:44:00,59.2,59.2,29.57,South,178,0.0,5.0,100,0.00,,,0.00,Wunderground v.1.15,2013-05-28 13:44:00,
2013-05-28 08:50:00,59.7,59.7,29.57,South,176,0.0,5.0,100,0.00,,,0.00,Wunderground v.1.15,2013-05-28 13:50:00,
2013-05-28 08:52:00,60.0,60.0,29.57,NE,56,0.0,5.0,100,0.00,,,0.00,Wunderground v.1.15,2013-05-28 13:52:00,
2013-05-28 08:55:00,60.1,60.1,29.58,SE,124,1.0,5.0,100,0.00,,,0.00,Wunderground v.1.15,2013-05-28 13:55:00,
2013-05-28 08:57:00,60.1,60.1,29.58,SE,134,1.0,5.0,100,0.00,,,0.00,Wunderground v.1.15,2013-05-28 13:57:00,
2013-05-28 09:01:00,59.9,59.9,29.58,SSE,156,1.0,5.0,100,0.00,,,0.00,Wunderground v.1.15,2013-05-28 14:01:00,
2013-05-28 09:04:00,59.9,59.9,29.58,SSE,160,1.0,5.0,100,0.00,,,0.00,Wunderground v.1.15,2013-05-28 14:04:00,
2013-05-28 09:08:00,60.0,60.0,29.58,SE,138,1.0,5.0,100,0.00,,,0.00,Wunderground v.1.15,2013-05-28 14:08:00,
2013-05-28 09:10:00,59.9,59.9,29.58,SE,140,0.0,5.0,100,0.00,,,0.00,Wunderground v.1.15,2013-05-28 14:10:00,
2013-05-28 09:14:00,60.0,60.0,29.58,SE,146,0.0,5.0,100,0.00,,,0.00,Wunderground v.1.15,2013-05-28 14:14:00,
2013-05-28 09:17:00,59.9,59.9,29.58,ENE,65,0.0,5.0,100,0.00,,,0.00,Wunderground v.1.15,2013-05-28 14:17:00,
2013-05-28 09:19:00,59.9,59.9,29.58,SE,134,0.0,5.0,100,0.00,,,0.00,Wunderground v.1.15,2013-05-28 14:19:00,
2013-05-28 09:21:00,59.9,59.9,29.59,SE,129,0.0,5.0,100,0.00,,,0.00,Wunderground v.1.15,2013-05-28 14:21:00,
2013-05-28 09:24:00,59.9,59.9,29.59,SSE,148,0.0,5.0,100,0.00,,,0.00,Wunderground v.1.15,2013-05-28 14:24:00,
2013-05-28 09:26:00,60.0,60.0,29.59,ENE,77,0.0,5.0,100,0.00,,,0.00,Wunderground v.1.15,2013-05-28 14:26:00,
2013-05-28 09:28:00,59.9,59.9,29.59,ENE,63,0.0,5.0,100,0.00,,,0.00,Wunderground v.1.15,2013-05-28 14:28:00,
2013-05-28 09:30:00,59.8,59.8,29.59,East,89,1.0,1.0,100,0.00,,,0.00,Wunderground v.1.15,2013-05-28 14:30:00,
2013-05-28 09:34:00,59.9,59.9,29.59,ESE,108,0.0,5.0,100,0.00,,,0.00,Wunderground v.1.15,2013-05-28 14:34:00,
2013-05-28 09:36:00,59.9,59.9,29.59,ESE,111,0.0,5.0,100,0.00,,,0.00,Wunderground v.1.15,2013-05-28 14:36:00,
2013-05-28 09:37:00,60.0,60.0,29.59,SE,124,0.0,5.0,100,0.00,,,0.00,Wunderground v.1.15,2013-05-28 14:37:00,
2013-05-28 09:39:00,60.0,60.0,29.59,SE,124,0.0,5.0,100,0.00,,,0.00,Wunderground v.1.15,2013-05-28 14:39:00,
2013-05-28 09:41:00,60.1,60.1,29.59,SE,124,0.0,5.0,100,0.00,,,0.00,Wunderground v.1.15,2013-05-28 14:41:00,
2013-05-28 09:43:00,60.2,60.2,29.59,SE,124,0.0,5.0,100,0.00,,,0.00,Wunderground v.1.15,2013-05-28 14:43:00,
2013-05-28 09:46:00,60.3,60.3,29.59,SE,124,0.0,5.0,100,0.00,,,0.00,Wunderground v.1.15,2013-05-28 14:46:00,
2013-05-28 09:48:00,60.3,60.3,29.59,East,98,0.0,5.0,100,0.00,,,0.00,Wunderground v.1.15,2013-05-28 14:48:00,
2013-05-28 09:52:00,60.1,60.1,29.59,ENE,65,1.0,5.0,100,0.00,,,0.00,Wunderground v.1.15,2013-05-28 14:52:00,
2013-05-28 09:54:00,60.1,60.1,29.59,East,80,1.0,5.0,100,0.00,,,0.00,Wunderground v.1.15,2013-05-28 14:54:00,
2013-05-28 09:59:00,60.0,60.0,29.60,East,92,1.0,5.0,100,0.00,,,0.00,Wunderground v.1.15,2013-05-28 14:59:00,
2013-05-28 10:01:00,60.0,60.0,29.60,SSE,150,1.0,5.0,100,0.00,,,0.00,Wunderground v.1.15,2013-05-28 15:01:00,
2013-05-28 10:03:00,60.1,60.1,29.60,SE,136,1.0,5.0,100,0.00,,,0.00,Wunderground v.1.15,2013-05-28 15:03:00,
2013-05-28 10:08:00,60.1,60.1,29.60,SE,138,0.0,5.0,100,0.00,,,0.00,Wunderground v.1.15,2013-05-28 15:08:00,
2013-05-28 10:10:00,60.0,60.0,29.60,SE,138,0.0,5.0,100,0.00,,,0.00,Wunderground v.1.15,2013-05-28 15:10:00,
2013-05-28 10:12:00,60.1,60.1,29.60,SE,136,0.0,5.0,100,0.00,,,0.00,Wunderground v.1.15,2013-05-28 15:12:00,
2013-05-28 10:14:00,59.9,59.9,29.60,NE,46,0.0,5.0,100,0.00,,,0.00,Wunderground v.1.15,2013-05-28 15:14:00,
2013-05-28 10:16:00,59.9,59.9,29.60,NE,46,0.0,5.0,100,0.00,,,0.00,Wunderground v.1.15,2013-05-28 15:16:00,
2013-05-28 10:21:00,60.1,60.1,29.60,NE,46,0.0,5.0,100,0.00,,,0.00,Wunderground v.1.15,2013-05-28 15:21:00,
2013-05-28 10:25:00,60.2,60.2,29.61,NE,46,0.0,5.0,100,0.00,,,0.00,Wunderground v.1.15,2013-05-28 15:25:00,
2013-05-28 10:28:00,60.2,60.2,29.60,SE,135,0.0,5.0,100,0.00,,,0.00,Wunderground v.1.15,2013-05-28 15:28:00,
2013-05-28 10:32:00,60.2,60.2,29.60,ESE,120,0.0,5.0,100,0.00,,,0.00,Wunderground v.1.15,2013-05-28 15:32:00,
2013-05-28 10:34:00,60.2,60.2,29.60,ESE,120,0.0,5.0,100,0.00,,,0.00,Wunderground v.1.15,2013-05-28 15:34:00,
2013-05-28 10:38:00,60.2,60.2,29.61,SSE,160,0.0,5.0,100,0.00,,,0.00,Wunderground v.1.15,2013-05-28 15:38:00,
2013-05-28 10:40:00,60.2,60.2,29.61,SSE,160,0.0,5.0,100,0.00,,,0.00,Wunderground v.1.15,2013-05-28 15:40:00,
2013-05-28 10:41:00,60.2,60.2,29.61,SSE,160,0.0,5.0,100,0.00,,,0.00,Wunderground v.1.15,2013-05-28 15:41:00,
2013-05-28 10:43:00,60.2,60.2,29.61,SSE,160,0.0,5.0,100,0.00,,,0.00,Wunderground v.1.15,2013-05-28 15:43:00,
2013-05-28 10:47:00,60.2,60.2,29.61,SSE,159,0.0,5.0,100,0.00,,,0.00,Wunderground v.1.15,2013-05-28 15:47:00,
2013-05-28 10:50:00,60.3,60.3,29.61,SSE,159,0.0,5.0,100,0.00,,,0.00,Wunderground v.1.15,2013-05-28 15:50:00,
2013-05-28 10:56:00,60.3,60.3,29.60,SSE,159,0.0,5.0,100,0.00,,,0.00,Wunderground v.1.15,2013-05-28 15:56:00,
2013-05-28 10:58:00,60.4,60.4,29.60,SSE,159,0.0,5.0,100,0.00,,,0.00,Wunderground v.1.15,2013-05-28 15:58:00,
2013-05-28 11:00:00,60.4,60.4,29.60,SSE,159,0.0,5.0,100,0.00,,,0.00,Wunderground v.1.15,2013-05-28 16:00:00,
2013-05-28 11:01:00,60.5,60.5,29.61,SSE,159,0.0,5.0,100,0.00,,,0.00,Wunderground v.1.15,2013-05-28 16:01:00,
2013-05-28 11:03:00,60.5,60.5,29.61,West,262,0.0,5.0,100,0.00,,,0.00,Wunderground v.1.15,2013-05-28 16:03:00,
2013-05-28 11:05:00,60.5,60.5,29.61,West,262,0.0,5.0,100,0.00,,,0.00,Wunderground v.1.15,2013-05-28 16:05:00,
2013-05-28 11:09:00,60.5,60.5,29.62,West,271,1.0,5.0,100,0.00,,,0.00,Wunderground v.1.15,2013-05-28 16:09:00,
2013-05-28 11:12:00,60.7,60.7,29.62,West,263,2.0,5.0,100,0.00,,,0.00,Wunderground v.1.15,2013-05-28 16:12:00,
2013-05-28 11:14:00,60.9,60.9,29.62,West,266,3.0,5.0,100,0.00,,,0.00,Wunderground v.1.15,2013-05-28 16:14:00,
2013-05-28 11:16:00,60.8,60.8,29.62,West,278,3.0,5.0,100,0.00,,,0.00,Wunderground v.1.15,2013-05-28 16:16:00,
2013-05-28 11:22:00,60.8,60.8,29.62,West,278,3.0,5.0,100,0.00,,,0.00,Wunderground v.1.15,2013-05-28 16:22:00,
2013-05-28 11:23:00,60.8,60.8,29.62,WNW,285,3.0,5.0,100,0.00,,,0.00,Wunderground v.1.15,2013-05-28 16:23:00,
2013-05-28 11:27:00,60.9,60.9,29.62,WNW,286,3.0,5.0,100,0.00,,,0.00,Wunderground v.1.15,2013-05-28 16:27:00,
2013-05-28 11:29:00,60.9,60.9,29.62,West,276,3.0,3.0,100,0.00,,,0.00,Wunderground v.1.15,2013-05-28 16:29:00,
2013-05-28 11:32:00,61.0,61.0,29.62,WNW,285,3.0,5.0,100,0.00,,,0.00,Wunderground v.1.15,2013-05-28 16:32:00,
2013-05-28 11:34:00,61.0,61.0,29.62,WNW,283,3.0,5.0,100,0.00,,,0.00,Wunderground v.1.15,2013-05-28 16:34:00,
2013-05-28 11:36:00,61.0,61.0,29.62,WNW,285,3.0,5.0,100,0.00,,,0.00,Wunderground v.1.15,2013-05-28 16:36:00,
2013-05-28 11:38:00,61.0,61.0,29.62,WSW,253,3.0,5.0,100,0.00,,,0.00,Wunderground v.1.15,2013-05-28 16:38:00,
2013-05-28 11:40:00,61.0,61.0,29.62,West,281,3.0,5.0,100,0.00,,,0.00,Wunderground v.1.15,2013-05-28 16:40:00,
2013-05-28 11:42:00,60.9,60.9,29.62,WSW,257,4.0,6.0,100,0.00,,,0.00,Wunderground v.1.15,2013-05-28 16:42:00,
2013-05-28 11:44:00,60.8,60.8,29.62,West,264,4.0,6.0,100,0.00,,,0.00,Wunderground v.1.15,2013-05-28 16:44:00,
2013-05-28 11:45:00,60.8,60.8,29.62,WNW,285,4.0,6.0,100,0.00,,,0.00,Wunderground v.1.15,2013-05-28 16:45:00,
2013-05-28 11:47:00,60.8,60.8,29.62,WNW,291,5.0,6.0,100,0.00,,,0.00,Wunderground v.1.15,2013-05-28 16:47:00,
2013-05-28 11:49:00,60.8,60.8,29.62,WNW,291,5.0,7.0,100,0.00,,,0.00,Wunderground v.1.15,2013-05-28 16:49:00,
2013-05-28 11:54:00,60.6,60.6,29.61,WNW,293,5.0,7.0,100,0.00,,,0.00,Wunderground v.1.15,2013-05-28 16:54:00,
2013-05-28 11:56:00,60.6,60.6,29.61,WNW,294,5.0,7.0,100,0.00,,,0.00,Wunderground v.1.15,2013-05-28 16:56:00,
2013-05-28 12:00:00,60.5,60.5,29.61,WNW,302,4.0,5.0,100,0.00,,,0.00,Wunderground v.1.15,2013-05-28 17:00:00,
2013-05-28 12:02:00,60.6,60.6,29.61,NW,316,4.0,5.0,100,0.00,,,0.00,Wunderground v.1.15,2013-05-28 17:02:00,
2013-05-28 12:04:00,60.7,60.7,29.61,NW,308,4.0,5.0,100,0.00,,,0.00,Wunderground v.1.15,2013-05-28 17:04:00,
2013-05-28 12:09:00,60.8,60.8,29.62,WNW,285,5.0,6.0,100,0.00,,,0.00,Wunderground v.1.15,2013-05-28 17:09:00,
2013-05-28 12:13:00,60.8,60.8,29.62,WNW,282,5.0,7.0,100,0.00,,,0.00,Wunderground v.1.15,2013-05-28 17:13:00,
2013-05-28 12:16:00,60.8,60.8,29.62,WNW,290,5.0,7.0,100,0.00,,,0.00,Wunderground v.1.15,2013-05-28 17:16:00,
2013-05-28 12:18:00,60.8,60.8,29.62,WNW,295,5.0,7.0,100,0.00,,,0.00,Wunderground v.1.15,2013-05-28 17:18:00,
2013-05-28 12:22:00,60.8,60.8,29.62,WNW,291,6.0,7.0,100,0.00,,,0.00,Wunderground v.1.15,2013-05-28 17:22:00,
2013-05-28 12:24:00,60.9,60.9,29.63,WNW,287,6.0,8.0,100,0.00,,,0.00,Wunderground v.1.15,2013-05-28 17:24:00,
2013-05-28 12:26:00,60.9,60.9,29.63,WNW,298,6.0,8.0,100,0.00,,,0.00,Wunderground v.1.15,2013-05-28 17:26:00,
2013-05-28 12:27:00,61.0,61.0,29.63,WNW,285,6.0,8.0,100,0.00,,,0.00,Wunderground v.1.15,2013-05-28 17:27:00,
2013-05-28 12:29:00,61.0,61.0,29.63,WNW,283,6.0,6.0,100,0.00,,,0.00,Wunderground v.1.15,2013-05-28 17:29:00,
2013-05-28 12:33:00,61.0,61.0,29.62,West,270,6.0,6.0,100,0.00,,,0.00,Wunderground v.1.15,2013-05-28 17:33:00,
2013-05-28 12:36:00,61.3,61.3,29.62,WNW,287,5.0,6.0,100,0.00,,,0.00,Wunderground v.1.15,2013-05-28 17:36:00,
2013-05-28 12:38:00,61.4,61.4,29.62,WNW,290,5.0,6.0,100,0.00,,,0.00,Wunderground v.1.15,2013-05-28 17:38:00,
2013-05-28 12:40:00,61.8,61.8,29.62,WNW,282,4.0,5.0,100,0.00,,,0.00,Wunderground v.1.15,2013-05-28 17:40:00,
2013-05-28 12:44:00,62.5,62.5,29.62,NW,309,5.0,7.0,100,0.00,,,0.00,Wunderground v.1.15,2013-05-28 17:44:00,
2013-05-28 12:46:00,63.1,63.1,29.63,WNW,287,5.0,9.0,100,0.00,,,0.00,Wunderground v.1.15,2013-05-28 17:46:00,
2013-05-28 12:48:00,63.0,63.0,29.63,WNW,294,5.0,9.0,100,0.00,,,0.00,Wunderground v.1.15,2013-05-28 17:48:00,
2013-05-28 12:53:00,62.0,62.0,29.63,WNW,295,6.0,6.0,100,0.00,,,0.00,Wunderground v.1.15,2013-05-28 17:53:00,
2013-05-28 12:55:00,61.9,61.9,29.63,NW,312,6.0,7.0,100,0.00,,,0.00,Wunderground v.1.15,2013-05-28 17:55:00,
2013-05-28 12:58:00,61.7,61.7,29.63,WNW,295,6.0,7.0,100,0.00,,,0.00,Wunderground v.1.15,2013-05-28 17:58:00,
2013-05-28 13:04:00,61.9,61.9,29.63,WNW,302,6.0,8.0,100,0.00,,,0.00,Wunderground v.1.15,2013-05-28 18:04:00,
2013-05-28 13:06:00,61.7,61.7,29.63,NW,314,7.0,8.0,100,0.00,,,0.00,Wunderground v.1.15,2013-05-28 18:06:00,
2013-05-28 13:08:00,61.6,61.6,29.63,WNW,297,7.0,8.0,100,0.00,,,0.00,Wunderground v.1.15,2013-05-28 18:08:00,
2013-05-28 13:11:00,61.7,61.7,29.63,NW,305,7.0,9.0,100,0.00,,,0.00,Wunderground v.1.15,2013-05-28 18:11:00,
2013-05-28 13:13:00,61.9,61.9,29.63,NNW,327,8.0,9.0,100,0.00,,,0.00,Wunderground v.1.15,2013-05-28 18:13:00,
2013-05-28 13:20:00,61.7,61.7,29.63,NNW,333,8.0,8.0,100,0.00,,,0.00,Wunderground v.1.15,2013-05-28 18:20:00,
2013-05-28 13:22:00,61.7,61.7,29.63,NNW,340,8.0,8.0,100,0.00,,,0.00,Wunderground v.1.15,2013-05-28 18:22:00,
2013-05-28 13:28:00,61.9,61.9,29.63,NNW,335,8.0,9.0,100,0.00,,,0.00,Wunderground v.1.15,2013-05-28 18:28:00,
2013-05-28 13:30:00,62.1,62.1,29.63,NNE,14,7.0,8.0,100,0.00,,,0.00,Wunderground v.1.15,2013-05-28 18:30:00,
2013-05-28 13:32:00,62.0,62.0,29.63,NNW,333,7.0,8.0,100,0.00,,,0.00,Wunderground v.1.15,2013-05-28 18:32:00,
2013-05-28 13:34:00,62.4,62.4,29.63,North,354,7.0,8.0,100,0.00,,,0.00,Wunderground v.1.15,2013-05-28 18:34:00,
2013-05-28 13:40:00,63.2,63.2,29.63,North,352,7.0,8.0,100,0.00,,,0.00,Wunderground v.1.15,2013-05-28 18:40:00,
2013-05-28 13:42:00,62.7,62.7,29.63,NNW,341,7.0,8.0,100,0.00,,,0.00,Wunderground v.1.15,2013-05-28 18:42:00,
2013-05-28 13:44:00,62.8,62.8,29.63,NNW,347,7.0,8.0,100,0.00,,,0.00,Wunderground v.1.15,2013-05-28 18:44:00,
2013-05-28 13:50:00,62.6,62.6,29.62,North,350,6.0,6.0,100,0.00,,,0.00,Wunderground v.1.15,2013-05-28 18:50:00,
2013-05-28 13:52:00,62.8,62.8,29.62,NNE,20,5.0,8.0,100,0.00,,,0.00,Wunderground v.1.15,2013-05-28 18:52:00,
2013-05-28 13:53:00,63.2,63.2,29.62,NNW,342,5.0,8.0,100,0.00,,,0.00,Wunderground v.1.15,2013-05-28 18:53:00,
2013-05-28 13:57:00,62.9,62.9,29.62,North,1,4.0,8.0,100,0.00,,,0.00,Wunderground v.1.15,2013-05-28 18:57:00,
2013-05-28 13:59:00,62.9,62.9,29.62,NNE,32,4.0,4.0,100,0.00,,,0.00,Wunderground v.1.15,2013-05-28 18:59:00,
2013-05-28 14:02:00,62.8,62.8,29.62,NNW,343,4.0,8.0,100,0.00,,,0.00,Wunderground v.1.15,2013-05-28 19:02:00,
2013-05-28 14:04:00,63.0,63.0,29.62,North,5,3.0,8.0,100,0.00,,,0.00,Wunderground v.1.15,2013-05-28 19:04:00,
2013-05-28 14:08:00,63.5,63.5,29.62,NE,37,2.0,8.0,100,0.00,,,0.00,Wunderground v.1.15,2013-05-28 19:08:00,
2013-05-28 14:10:00,63.5,63.5,29.62,NE,51,2.0,8.0,100,0.00,,,0.00,Wunderground v.1.15,2013-05-28 19:10:00,
2013-05-28 14:14:00,63.6,63.6,29.62,WNW,288,2.0,8.0,100,0.00,,,0.00,Wunderground v.1.15,2013-05-28 19:14:00,
2013-05-28 14:16:00,63.7,63.7,29.62,West,266,2.0,8.0,100,0.00,,,0.00,Wunderground v.1.15,2013-05-28 19:16:00,
2013-05-28 14:19:00,64.0,64.0,29.62,SW,224,2.0,2.0,100,0.00,,,0.00,Wunderground v.1.15,2013-05-28 19:19:00,
2013-05-28 14:21:00,64.5,64.5,29.62,WNW,294,2.0,8.0,100,0.00,,,0.00,Wunderground v.1.15,2013-05-28 19:21:00,
2013-05-28 14:24:00,64.5,64.5,29.62,WNW,302,2.0,8.0,100,0.00,,,0.00,Wunderground v.1.15,2013-05-28 19:24:00,
2013-05-28 14:26:00,64.6,64.6,29.62,WNW,300,2.0,8.0,100,0.00,,,0.00,Wunderground v.1.15,2013-05-28 19:26:00,
2013-05-28 14:32:00,65.4,65.4,29.62,West,274,2.0,8.0,100,0.00,,,0.00,Wunderground v.1.15,2013-05-28 19:32:00,
2013-05-28 14:34:00,65.6,65.6,29.62,North,1,2.0,8.0,100,0.00,,,0.00,Wunderground v.1.15,2013-05-28 19:34:00,
2013-05-28 14:39:00,66.3,66.3,29.63,NW,311,2.0,8.0,100,0.00,,,0.00,Wunderground v.1.15,2013-05-28 19:39:00,
2013-05-28 14:41:00,66.6,66.6,29.62,NNW,348,3.0,8.0,100,0.00,,,0.00,Wunderground v.1.15,2013-05-28 19:41:00,
2013-05-28 14:43:00,66.5,66.5,29.63,NNW,330,3.0,8.0,100,0.00,,,0.00,Wunderground v.1.15,2013-05-28 19:43:00,
2013-05-28 14:45:00,66.3,66.3,29.63,NNW,336,4.0,8.0,100,0.00,,,0.00,Wunderground v.1.15,2013-05-28 19:45:00,
2013-05-28 14:48:00,66.2,65.6,29.63,NNW,328,4.0,8.0,98,0.00,,,0.00,Wunderground v.1.15,2013-05-28 19:48:00,
2013-05-28 14:50:00,66.3,65.4,29.63,NW,324,4.0,4.0,97,0.00,,,0.00,Wunderground v.1.15,2013-05-28 19:50:00,
2013-05-28 14:56:00,66.7,65.2,29.63,WNW,291,4.0,8.0,95,0.00,,,0.00,Wunderground v.1.15,2013-05-28 19:56:00,
2013-05-28 14:58:00,66.8,65.3,29.63,NW,319,5.0,8.0,95,0.00,,,0.00,Wunderground v.1.15,2013-05-28 19:58:00,
2013-05-28 15:03:00,66.8,64.7,29.63,West,279,5.0,8.0,93,0.00,,,0.00,Wunderground v.1.15,2013-05-28 20:03:00,
2013-05-28 15:05:00,66.8,64.7,29.63,WNW,286,5.0,8.0,93,0.00,,,0.00,Wunderground v.1.15,2013-05-28 20:05:00,
2013-05-28 15:10:00,66.8,64.4,29.63,WNW,283,4.0,4.0,92,0.00,,,0.00,Wunderground v.1.15,2013-05-28 20:10:00,
2013-05-28 15:14:00,66.9,63.9,29.63,NW,324,4.0,8.0,90,0.00,,,0.00,Wunderground v.1.15,2013-05-28 20:14:00,
2013-05-28 15:18:00,67.1,64.1,29.63,NE,45,3.0,8.0,90,0.00,,,0.00,Wunderground v.1.15,2013-05-28 20:18:00,
2013-05-28 15:21:00,67.3,64.3,29.63,North,1,3.0,8.0,90,0.00,,,0.00,Wunderground v.1.15,2013-05-28 20:21:00,
2013-05-28 15:23:00,67.6,65.2,29.63,WNW,284,2.0,8.0,92,0.00,,,0.00,Wunderground v.1.15,2013-05-28 20:23:00,
2013-05-28 15:25:00,67.9,65.5,29.63,NW,319,3.0,8.0,92,0.00,,,0.00,Wunderground v.1.15,2013-05-28 20:25:00,
2013-05-28 15:29:00,67.7,64.0,29.64,WNW,290,4.0,4.0,88,0.00,,,0.00,Wunderground v.1.15,2013-05-28 20:29:00,
2013-05-28 15:32:00,67.9,64.9,29.64,North,8,4.0,8.0,90,0.00,,,0.00,Wunderground v.1.15,2013-05-28 20:32:00,
2013-05-28 15:34:00,68.2,65.2,29.64,North,359,4.0,8.0,90,0.00,,,0.00,Wunderground v.1.15,2013-05-28 20:34:00,
2013-05-28 15:38:00,68.4,65.0,29.64,NE,39,4.0,8.0,89,0.00,,,0.00,Wunderground v.1.15,2013-05-28 20:38:00,
2013-05-28 15:40:00,68.4,65.0,29.64,NNE,15,4.0,8.0,89,0.00,,,0.00,Wunderground v.1.15,2013-05-28 20:40:00,
2013-05-28 15:42:00,68.5,65.4,29.64,NNE,31,4.0,8.0,90,0.00,,,0.00,Wunderground v.1.15,2013-05-28 20:42:00,
2013-05-28 15:47:00,68.1,64.4,29.64,NNE,22,5.0,8.0,88,0.00,,,0.00,Wunderground v.1.15,2013-05-28 20:47:00,
2013-05-28 15:49:00,68.0,64.6,29.64,NNE,16,5.0,8.0,89,0.00,,,0.00,Wunderground v.1.15,2013-05-28 20:49:00,
2013-05-28 15:52:00,67.8,64.1,29.64,NNE,14,5.0,8.0,88,0.00,,,0.00,Wunderground v.1.15,2013-05-28 20:52:00,
2013-05-28 15:54:00,67.7,64.0,29.64,NE,38,5.0,8.0,88,0.00,,,0.00,Wunderground v.1.15,2013-05-28 20:54:00,
2013-05-28 15:58:00,67.6,63.9,29.64,NNE,26,5.0,8.0,88,0.00,,,0.00,Wunderground v.1.15,2013-05-28 20:58:00,
2013-05-28 16:00:00,67.5,64.5,29.64,NNE,30,5.0,8.0,90,0.00,,,0.00,Wunderground v.1.15,2013-05-28 21:00:00,
2013-05-28 16:02:00,67.5,64.5,29.64,NNE,13,5.0,8.0,90,0.00,,,0.00,Wunderground v.1.15,2013-05-28 21:02:00,
2013-05-28 16:04:00,67.5,64.1,29.64,North,10,5.0,8.0,89,0.00,,,0.00,Wunderground v.1.15,2013-05-28 21:04:00,
2013-05-28 16:05:00,67.5,63.8,29.64,NNE,32,6.0,8.0,88,0.00,,,0.00,Wunderground v.1.15,2013-05-28 21:05:00,
2013-05-28 16:07:00,67.7,64.7,29.64,North,352,5.0,8.0,90,0.00,,,0.00,Wunderground v.1.15,2013-05-28 21:07:00,
2013-05-28 16:09:00,67.9,64.9,29.64,NE,34,5.0,5.0,90,0.00,,,0.00,Wunderground v.1.15,2013-05-28 21:09:00,
2013-05-28 16:11:00,68.0,64.3,29.64,NNE,31,5.0,8.0,88,0.00,,,0.00,Wunderground v.1.15,2013-05-28 21:11:00,
2013-05-28 16:16:00,68.0,64.6,29.64,NNE,21,4.0,8.0,89,0.00,,,0.00,Wunderground v.1.15,2013-05-28 21:16:00,
2013-05-28 16:18:00,68.0,64.3,29.64,NE,44,4.0,8.0,88,0.00,,,0.00,Wunderground v.1.15,2013-05-28 21:18:00,
2013-05-28 16:20:00,67.9,64.2,29.64,NE,45,4.0,4.0,88,0.00,,,0.00,Wunderground v.1.15,2013-05-28 21:20:00,
2013-05-28 16:22:00,67.8,63.8,29.64,North,1,4.0,8.0,87,0.00,,,0.00,Wunderground v.1.15,2013-05-28 21:22:00,
2013-05-28 16:24:00,67.8,63.8,29.64,NE,40,3.0,8.0,87,0.00,,,0.00,Wunderground v.1.15,2013-05-28 21:24:00,
2013-05-28 16:25:00,67.8,64.1,29.64,NE,35,3.0,8.0,88,0.00,,,0.00,Wunderground v.1.15,2013-05-28 21:25:00,
2013-05-28 16:29:00,67.9,64.2,29.64,ENE,67,3.0,8.0,88,0.00,,,0.00,Wunderground v.1.15,2013-05-28 21:29:00,
2013-05-28 16:33:00,68.3,63.9,29.64,North,3,3.0,8.0,86,0.00,,,0.00,Wunderground v.1.15,2013-05-28 21:33:00,
2013-05-28 16:36:00,68.3,63.9,29.64,NNE,26,4.0,8.0,86,0.00,,,0.00,Wunderground v.1.15,2013-05-28 21:36:00,
2013-05-28 16:38:00,68.2,63.9,29.64,NNE,25,4.0,8.0,86,0.00,,,0.00,Wunderground v.1.15,2013-05-28 21:38:00,
2013-05-28 16:42:00,68.1,64.1,29.64,NNE,13,4.0,8.0,87,0.00,,,0.00,Wunderground v.1.15,2013-05-28 21:42:00,
2013-05-28 16:48:00,68.3,64.3,29.64,East,86,3.0,8.0,87,0.00,,,0.00,Wunderground v.1.15,2013-05-28 21:48:00,
2013-05-28 16:50:00,68.6,64.6,29.64,SE,146,2.0,2.0,87,0.00,,,0.00,Wunderground v.1.15,2013-05-28 21:50:00,
2013-05-28 16:52:00,69.2,65.2,29.64,ENE,75,2.0,8.0,87,0.00,,,0.00,Wunderground v.1.15,2013-05-28 21:52:00,
2013-05-28 16:54:00,69.7,65.0,29.64,ENE,62,2.0,8.0,85,0.00,,,0.00,Wunderground v.1.15,2013-05-28 21:54:00,
2013-05-28 16:56:00,70.2,64.8,29.64,NNW,335,1.0,8.0,83,0.00,,,0.00,Wunderground v.1.15,2013-05-28 21:56:00,
2013-05-28 16:58:00,70.6,65.2,29.64,West,276,1.0,8.0,83,0.00,,,0.00,Wunderground v.1.15,2013-05-28 21:58:00,
2013-05-28 17:01:00,71.0,64.2,29.64,WNW,302,1.0,8.0,79,0.00,,,0.00,Wunderground v.1.15,2013-05-28 22:01:00,
2013-05-28 17:03:00,71.2,64.0,29.64,West,263,2.0,8.0,78,0.00,,,0.00,Wunderground v.1.15,2013-05-28 22:03:00,
2013-05-28 17:08:00,71.5,65.7,29.64,NNW,327,2.0,8.0,82,0.00,,,0.00,Wunderground v.1.15,2013-05-28 22:08:00,
2013-05-28 17:12:00,71.2,64.4,29.64,NNW,340,2.0,8.0,79,0.00,,,0.00,Wunderground v.1.15,2013-05-28 22:12:00,
2013-05-28 17:14:00,71.2,64.7,29.64,NW,322,2.0,8.0,80,0.00,,,0.00,Wunderground v.1.15,2013-05-28 22:14:00,
2013-05-28 17:16:00,71.3,64.8,29.64,NE,44,2.0,8.0,80,0.00,,,0.00,Wunderground v.1.15,2013-05-28 22:16:00,
2013-05-28 17:20:00,71.5,65.0,29.64,ENE,58,2.0,8.0,80,0.00,,,0.00,Wunderground v.1.15,2013-05-28 22:20:00,
2013-05-28 17:22:00,71.3,65.5,29.64,NNE,27,2.0,8.0,82,0.00,,,0.00,Wunderground v.1.15,2013-05-28 22:22:00,
2013-05-28 17:25:00,71.0,64.5,29.63,NNE,30,3.0,8.0,80,0.00,,,0.00,Wunderground v.1.15,2013-05-28 22:25:00,
2013-05-28 17:28:00,70.9,64.4,29.63,NE,48,3.0,8.0,80,0.00,,,0.00,Wunderground v.1.15,2013-05-28 22:28:00,
2013-05-28 17:30:00,70.8,64.0,29.63,NNE,20,2.0,8.0,79,0.00,,,0.00,Wunderground v.1.15,2013-05-28 22:30:00,
2013-05-28 17:34:00,71.0,65.2,29.63,NE,39,3.0,8.0,82,0.00,,,0.00,Wunderground v.1.15,2013-05-28 22:34:00,
2013-05-28 17:36:00,70.8,64.3,29.63,NE,36,3.0,8.0,80,0.00,,,0.00,Wunderground v.1.15,2013-05-28 22:36:00,
2013-05-28 17:40:00,70.9,65.1,29.63,NNE,22,4.0,4.0,82,0.00,,,0.00,Wunderground v.1.15,2013-05-28 22:40:00,
2013-05-28 17:42:00,71.0,64.9,29.63,NNE,33,4.0,8.0,81,0.00,,,0.00,Wunderground v.1.15,2013-05-28 22:42:00,
2013-05-28 17:43:00,71.2,65.4,29.63,NNE,26,3.0,8.0,82,0.00,,,0.00,Wunderground v.1.15,2013-05-28 22:43:00,
2013-05-28 17:45:00,71.2,65.4,29.63,NNE,18,3.0,8.0,82,0.00,,,0.00,Wunderground v.1.15,2013-05-28 22:45:00,
2013-05-28 17:50:00,71.3,65.5,29.63,North,354,3.0,8.0,82,0.00,,,0.00,Wunderground v.1.15,2013-05-28 22:50:00,
2013-05-28 17:54:00,71.2,64.4,29.63,West,260,3.0,8.0,79,0.00,,,0.00,Wunderground v.1.15,2013-05-28 22:54:00,
2013-05-28 17:58:00,71.7,64.8,29.63,NNE,26,2.0,8.0,79,0.00,,,0.00,Wunderground v.1.15,2013-05-28 22:58:00,
2013-05-28 18:00:00,71.6,64.7,29.63,NE,44,2.0,8.0,79,0.00,,,0.00,Wunderground v.1.15,2013-05-28 23:00:00,
2013-05-28 18:02:00,71.4,64.5,29.63,NNE,32,2.0,8.0,79,0.00,,,0.00,Wunderground v.1.15,2013-05-28 23:02:00,
2013-05-28 18:05:00,71.1,64.6,29.63,ENE,68,3.0,8.0,80,0.00,,,0.00,Wunderground v.1.15,2013-05-28 23:05:00,
2013-05-28 18:07:00,71.1,65.0,29.63,SSE,153,3.0,8.0,81,0.00,,,0.00,Wunderground v.1.15,2013-05-28 23:07:00,
2013-05-28 18:10:00,71.2,65.4,29.62,ENE,58,3.0,3.0,82,0.00,,,0.00,Wunderground v.1.15,2013-05-28 23:10:00,
2013-05-28 18:12:00,71.3,64.8,29.62,NNW,345,3.0,8.0,80,0.00,,,0.00,Wunderground v.1.15,2013-05-28 23:12:00,
2013-05-28 18:14:00,71.5,65.0,29.62,NNE,23,2.0,8.0,80,0.00,,,0.00,Wunderground v.1.15,2013-05-28 23:14:00,
2013-05-28 18:16:00,71.4,65.3,29.62,NNE,30,2.0,8.0,81,0.00,,,0.00,Wunderground v.1.15,2013-05-28 23:16:00,
2013-05-28 18:18:00,71.3,64.4,29.62,NNE,18,2.0,8.0,79,0.00,,,0.00,Wunderground v.1.15,2013-05-28 23:18:00,
2013-05-28 18:20:00,71.0,63.8,29.62,NNE,32,3.0,8.0,78,0.00,,,0.00,Wunderground v.1.15,2013-05-28 23:20:00,
2013-05-28 18:22:00,70.8,64.0,29.62,ENE,67,3.0,8.0,79,0.00,,,0.00,Wunderground v.1.15,2013-05-28 23:22:00,
2013-05-28 18:24:00,70.6,64.1,29.62,ENE,60,3.0,8.0,80,0.00,,,0.00,Wunderground v.1.15,2013-05-28 23:24:00,
2013-05-28 18:26:00,70.5,64.0,29.62,NE,49,3.0,8.0,80,0.00,,,0.00,Wunderground v.1.15,2013-05-28 23:26:00,
2013-05-28 18:29:00,70.4,64.3,29.62,NNE,32,2.0,2.0,81,0.00,,,0.00,Wunderground v.1.15,2013-05-28 23:29:00,
2013-05-28 18:32:00,70.4,63.6,29.62,NNW,337,1.0,8.0,79,0.00,,,0.00,Wunderground v.1.15,2013-05-28 23:32:00,
2013-05-28 18:34:00,70.4,63.2,29.61,North,351,1.0,8.0,78,0.00,,,0.00,Wunderground v.1.15,2013-05-28 23:34:00,
2013-05-28 18:36:00,70.5,63.3,29.62,North,359,1.0,8.0,78,0.00,,,0.00,Wunderground v.1.15,2013-05-28 23:36:00,
2013-05-28 18:38:00,70.5,63.7,29.62,North,359,1.0,8.0,79,0.00,,,0.00,Wunderground v.1.15,2013-05-28 23:38:00,
2013-05-28 18:44:00,70.5,64.0,29.61,NE,51,2.0,8.0,80,0.00,,,0.00,Wunderground v.1.15,2013-05-28 23:44:00,
2013-05-28 18:47:00,70.6,64.5,29.61,NNE,23,3.0,8.0,81,0.00,,,0.00,Wunderground v.1.15,2013-05-28 23:47:00,
2013-05-28 18:49:00,70.6,65.2,29.61,NNE,32,4.0,8.0,83,0.00,,,0.00,Wunderground v.1.15,2013-05-28 23:49:00,
2013-05-28 18:54:00,70.5,64.7,29.61,NNE,31,5.0,8.0,82,0.00,,,0.00,Wunderground v.1.15,2013-05-28 23:54:00,
2013-05-28 19:00:00,70.3,64.9,29.61,NNE,27,5.0,5.0,83,0.00,,,0.00,Wunderground v.1.15,2013-05-29 00:00:00,
2013-05-28 19:02:00,70.2,64.4,29.61,NNE,31,5.0,8.0,82,0.00,,,0.00,Wunderground v.1.15,2013-05-29 00:02:00,
2013-05-28 19:04:00,70.1,64.0,29.61,NE,44,5.0,8.0,81,0.00,,,0.00,Wunderground v.1.15,2013-05-29 00:04:00,
2013-05-28 19:08:00,70.1,64.7,29.61,NNE,32,5.0,8.0,83,0.00,,,0.00,Wunderground v.1.15,2013-05-29 00:08:00,
2013-05-28 19:11:00,70.1,64.3,29.61,NE,46,4.0,8.0,82,0.00,,,0.00,Wunderground v.1.15,2013-05-29 00:11:00,
2013-05-28 19:14:00,70.0,63.5,29.62,NE,50,4.0,8.0,80,0.00,,,0.00,Wunderground v.1.15,2013-05-29 00:14:00,
2013-05-28 19:16:00,70.1,63.6,29.62,NE,39,3.0,8.0,80,0.00,,,0.00,Wunderground v.1.15,2013-05-29 00:16:00,
2013-05-28 19:18:00,70.2,63.7,29.62,NE,35,3.0,8.0,80,0.00,,,0.00,Wunderground v.1.15,2013-05-29 00:18:00,
2013-05-28 19:20:00,70.3,63.8,29.62,NNE,26,3.0,8.0,80,0.00,,,0.00,Wunderground v.1.15,2013-05-29 00:20:00,
2013-05-28 19:22:00,70.3,64.2,29.62,NE,35,3.0,8.0,81,0.00,,,0.00,Wunderground v.1.15,2013-05-29 00:22:00,
2013-05-28 19:26:00,70.3,63.8,29.61,ESE,114,3.0,8.0,80,0.00,,,0.00,Wunderground v.1.15,2013-05-29 00:26:00,
2013-05-28 19:28:00,70.3,63.8,29.61,NE,44,3.0,8.0,80,0.00,,,0.00,Wunderground v.1.15,2013-05-29 00:28:00,
2013-05-28 19:30:00,70.1,63.6,29.61,WSW,251,3.0,3.0,80,0.00,,,0.00,Wunderground v.1.15,2013-05-29 00:30:00,
2013-05-28 19:33:00,69.7,64.0,29.60,NE,51,4.0,5.0,82,0.00,,,0.00,Wunderground v.1.15,2013-05-29 00:33:00,
2013-05-28 19:36:00,69.6,64.2,29.60,NE,46,4.0,8.0,83,0.00,,,0.00,Wunderground v.1.15,2013-05-29 00:36:00,
2013-05-28 19:40:00,69.3,63.6,29.60,NE,51,4.0,8.0,82,0.00,,,0.00,Wunderground v.1.15,2013-05-29 00:40:00,
2013-05-28 19:42:00,69.2,63.5,29.60,NNE,31,4.0,8.0,82,0.00,,,0.00,Wunderground v.1.15,2013-05-29 00:42:00,
2013-05-28 19:44:00,69.1,63.7,29.59,ESE,118,4.0,8.0,83,0.00,,,0.00,Wunderground v.1.15,2013-05-29 00:44:00,
2013-05-28 19:46:00,69.1,63.7,29.60,ENE,65,3.0,8.0,83,0.00,,,0.00,Wunderground v.1.15,2013-05-29 00:46:00,
2013-05-28 19:48:00,69.1,63.7,29.60,NNW,342,3.0,8.0,83,0.00,,,0.00,Wunderground v.1.15,2013-05-29 00:48:00,
2013-05-28 19:51:00,68.9,63.5,29.60,NE,44,3.0,8.0,83,0.00,,,0.00,Wunderground v.1.15,2013-05-29 00:51:00,
2013-05-28 19:53:00,68.8,63.4,29.61,East,87,3.0,8.0,83,0.00,,,0.00,Wunderground v.1.15,2013-05-29 00:53:00,
2013-05-28 19:58:00,68.7,63.7,29.61,SE,141,3.0,8.0,84,0.00,,,0.00,Wunderground v.1.15,2013-05-29 00:58:00,
2013-05-28 20:00:00,68.8,63.8,29.61,ESE,122,2.0,2.0,84,0.00,,,0.00,Wunderground v.1.15,2013-05-29 01:00:00,
2013-05-28 20:04:00,69.2,63.5,29.61,ENE,72,1.0,8.0,82,0.00,,,0.00,Wunderground v.1.15,2013-05-29 01:04:00,
2013-05-28 20:08:00,69.1,63.7,29.61,SE,141,0.0,8.0,83,0.00,,,0.00,Wunderground v.1.15,2013-05-29 01:08:00,
2013-05-28 20:10:00,69.0,63.3,29.61,SE,135,0.0,8.0,82,0.00,,,0.00,Wunderground v.1.15,2013-05-29 01:10:00,
2013-05-28 20:12:00,68.8,63.4,29.61,SE,136,1.0,8.0,83,0.00,,,0.00,Wunderground v.1.15,2013-05-29 01:12:00,
2013-05-28 20:15:00,68.5,63.1,29.61,SE,136,1.0,8.0,83,0.00,,,0.00,Wunderground v.1.15,2013-05-29 01:15:00,
2013-05-28 20:18:00,68.4,63.0,29.61,SE,135,0.0,8.0,83,0.00,,,0.00,Wunderground v.1.15,2013-05-29 01:18:00,
2013-05-28 20:20:00,68.1,63.1,29.61,SE,134,0.0,8.0,84,0.00,,,0.00,Wunderground v.1.15,2013-05-29 01:20:00,
2013-05-28 20:24:00,67.1,62.4,29.61,ENE,58,1.0,8.0,85,0.00,,,0.00,Wunderground v.1.15,2013-05-29 01:24:00,
2013-05-28 20:26:00,66.7,62.4,29.61,ENE,63,1.0,8.0,86,0.00,,,0.00,Wunderground v.1.15,2013-05-29 01:26:00,
2013-05-28 20:28:00,66.4,62.4,29.61,ENE,72,1.0,8.0,87,0.00,,,0.00,Wunderground v.1.15,2013-05-29 01:28:00,
2013-05-28 20:32:00,66.1,62.4,29.61,ENE,66,2.0,8.0,88,0.00,,,0.00,Wunderground v.1.15,2013-05-29 01:32:00,
2013-05-28 20:34:00,65.9,62.2,29.60,East,84,2.0,8.0,88,0.00,,,0.00,Wunderground v.1.15,2013-05-29 01:34:00,
2013-05-28 20:35:00,65.8,62.1,29.60,NE,41,2.0,8.0,88,0.00,,,0.00,Wunderground v.1.15,2013-05-29 01:35:00,
2013-05-28 20:40:00,65.3,62.0,29.60,ENE,70,2.0,8.0,89,0.00,,,0.00,Wunderground v.1.15,2013-05-29 01:40:00,
2013-05-28 20:42:00,65.2,61.9,29.60,ENE,60,2.0,8.0,89,0.00,,,0.00,Wunderground v.1.15,2013-05-29 01:42:00,
2013-05-28 20:44:00,65.0,62.0,29.60,East,87,2.0,8.0,90,0.00,,,0.00,Wunderground v.1.15,2013-05-29 01:44:00,
2013-05-28 20:48:00,64.7,62.0,29.60,ENE,68,2.0,8.0,91,0.00,,,0.00,Wunderground v.1.15,2013-05-29 01:48:00,
2013-05-28 20:50:00,64.6,61.9,29.61,ENE,72,2.0,2.0,91,0.00,,,0.00,Wunderground v.1.15,2013-05-29 01:50:00,
2013-05-28 20:54:00,64.3,61.6,29.61,NE,55,1.0,8.0,91,0.00,,,0.00,Wunderground v.1.15,2013-05-29 01:54:00,
2013-05-28 20:55:00,64.1,61.4,29.61,NE,55,1.0,8.0,91,0.00,,,0.00,Wunderground v.1.15,2013-05-29 01:55:00,
2013-05-28 20:57:00,64.0,61.6,29.61,NE,51,1.0,8.0,92,0.00,,,0.00,Wunderground v.1.15,2013-05-29 01:57:00,
2013-05-28 21:00:00,63.9,61.5,29.61,ENE,63,1.0,8.0,92,0.00,,,0.00,Wunderground v.1.15,2013-05-29 02:00:00,
2013-05-28 21:02:00,63.8,61.7,29.61,ENE,68,1.0,8.0,93,0.00,,,0.00,Wunderground v.1.15,2013-05-29 02:02:00,
2013-05-28 21:04:00,63.8,61.7,29.61,ENE,60,1.0,8.0,93,0.00,,,0.00,Wunderground v.1.15,2013-05-29 02:04:00,
2013-05-28 21:08:00,63.6,61.8,29.60,ENE,61,2.0,8.0,94,0.00,,,0.00,Wunderground v.1.15,2013-05-29 02:08:00,
2013-05-28 21:10:00,63.5,61.7,29.60,ENE,63,2.0,2.0,94,0.00,,,0.00,Wunderground v.1.15,2013-05-29 02:10:00,
2013-05-28 21:12:00,63.5,61.7,29.60,East,93,2.0,8.0,94,0.00,,,0.00,Wunderground v.1.15,2013-05-29 02:12:00,
2013-05-28 21:16:00,63.3,61.5,29.61,East,100,1.0,8.0,94,0.00,,,0.00,Wunderground v.1.15,2013-05-29 02:16:00,
2013-05-28 21:17:00,63.2,61.4,29.61,East,100,1.0,8.0,94,0.00,,,0.00,Wunderground v.1.15,2013-05-29 02:17:00,
2013-05-28 21:19:00,63.1,61.3,29.62,SE,124,1.0,1.0,94,0.00,,,0.00,Wunderground v.1.15,2013-05-29 02:19:00,
2013-05-28 21:24:00,62.8,61.0,29.62,SE,125,0.0,8.0,94,0.00,,,0.00,Wunderground v.1.15,2013-05-29 02:24:00,
2013-05-28 21:26:00,62.7,61.2,29.63,SE,131,0.0,8.0,95,0.00,,,0.00,Wunderground v.1.15,2013-05-29 02:26:00,
2013-05-28 21:28:00,62.7,61.2,29.63,SE,131,0.0,8.0,95,0.00,,,0.00,Wunderground v.1.15,2013-05-29 02:28:00,
2013-05-28 21:32:00,62.6,61.4,29.63,SE,131,1.0,8.0,96,0.00,,,0.00,Wunderground v.1.15,2013-05-29 02:32:00,
2013-05-28 21:36:00,62.3,60.8,29.64,SE,131,1.0,8.0,95,0.00,,,0.00,Wunderground v.1.15,2013-05-29 02:36:00,
2013-05-28 21:38:00,62.2,60.8,29.64,SE,131,0.0,8.0,95,0.00,,,0.00,Wunderground v.1.15,2013-05-29 02:38:00,
2013-05-28 21:39:00,62.1,60.9,29.64,SE,131,0.0,8.0,96,0.00,,,0.00,Wunderground v.1.15,2013-05-29 02:39:00,
2013-05-28 21:46:00,61.8,60.6,29.65,SE,132,0.0,8.0,96,0.00,,,0.00,Wunderground v.1.15,2013-05-29 02:46:00,
2013-05-28 21:48:00,61.7,60.5,29.65,SE,133,0.0,8.0,96,0.00,,,0.00,Wunderground v.1.15,2013-05-29 02:48:00,
2013-05-28 21:50:00,61.6,60.4,29.65,SE,133,0.0,8.0,96,0.00,,,0.00,Wunderground v.1.15,2013-05-29 02:50:00,
2013-05-28 21:52:00,61.6,60.4,29.65,East,84,0.0,8.0,96,0.00,,,0.00,Wunderground v.1.15,2013-05-29 02:52:00,
2013-05-28 21:56:00,61.6,60.7,29.65,ENE,62,0.0,8.0,97,0.00,,,0.00,Wunderground v.1.15,2013-05-29 02:56:00,
2013-05-28 21:58:00,61.5,60.6,29.65,East,100,0.0,8.0,97,0.00,,,0.00,Wunderground v.1.15,2013-05-29 02:58:00,
2013-05-28 21:59:00,61.5,60.6,29.65,ENE,72,0.0,8.0,97,0.00,,,0.00,Wunderground v.1.15,2013-05-29 02:59:00,
2013-05-28 22:01:00,61.4,60.5,29.65,ENE,64,0.0,8.0,97,0.00,,,0.00,Wunderground v.1.15,2013-05-29 03:01:00,
2013-05-28 22:04:00,61.3,60.4,29.65,SE,132,0.0,8.0,97,0.00,,,0.00,Wunderground v.1.15,2013-05-29 03:04:00,
2013-05-28 22:06:00,61.3,60.4,29.66,SE,134,0.0,8.0,97,0.00,,,0.00,Wunderground v.1.15,2013-05-29 03:06:00,
2013-05-28 22:10:00,61.2,60.3,29.66,SE,129,0.0,8.0,97,0.00,,,0.00,Wunderground v.1.15,2013-05-29 03:10:00,
2013-05-28 22:14:00,61.1,60.2,29.66,ESE,118,0.0,8.0,97,0.00,,,0.00,Wunderground v.1.15,2013-05-29 03:14:00,
2013-05-28 22:16:00,61.0,60.1,29.66,ESE,123,0.0,8.0,97,0.00,,,0.00,Wunderground v.1.15,2013-05-29 03:16:00,
2013-05-28 22:20:00,60.9,60.0,29.66,SE,133,0.0,8.0,97,0.00,,,0.00,Wunderground v.1.15,2013-05-29 03:20:00,
2013-05-28 22:21:00,60.9,60.0,29.65,SE,143,1.0,8.0,97,0.00,,,0.00,Wunderground v.1.15,2013-05-29 03:21:00,
2013-05-28 22:23:00,60.8,59.9,29.65,East,94,1.0,8.0,97,0.00,,,0.00,Wunderground v.1.15,2013-05-29 03:23:00,
2013-05-28 22:28:00,60.7,59.8,29.65,SE,134,1.0,8.0,97,0.00,,,0.00,Wunderground v.1.15,2013-05-29 03:28:00,
2013-05-28 22:30:00,60.7,60.1,29.65,NE,46,1.0,1.0,98,0.00,,,0.00,Wunderground v.1.15,2013-05-29 03:30:00,
2013-05-28 22:34:00,60.7,60.1,29.65,ESE,121,1.0,8.0,98,0.00,,,0.00,Wunderground v.1.15,2013-05-29 03:34:00,
2013-05-28 22:36:00,60.7,60.1,29.65,SSE,166,1.0,8.0,98,0.00,,,0.00,Wunderground v.1.15,2013-05-29 03:36:00,
2013-05-28 22:42:00,60.6,60.0,29.65,SSW,199,1.0,8.0,98,0.00,,,0.00,Wunderground v.1.15,2013-05-29 03:42:00,
2013-05-28 22:47:00,60.4,59.8,29.65,ESE,105,0.0,8.0,98,0.00,,,0.00,Wunderground v.1.15,2013-05-29 03:47:00,
2013-05-28 22:49:00,60.4,59.8,29.65,ESE,103,0.0,8.0,98,0.00,,,0.00,Wunderground v.1.15,2013-05-29 03:49:00,
2013-05-28 22:54:00,60.4,59.8,29.65,SE,131,0.0,8.0,98,0.00,,,0.00,Wunderground v.1.15,2013-05-29 03:54:00,
2013-05-28 22:56:00,60.3,59.7,29.65,SE,131,0.0,8.0,98,0.00,,,0.00,Wunderground v.1.15,2013-05-29 03:56:00,
2013-05-28 22:58:00,60.3,59.7,29.65,NE,43,0.0,8.0,98,0.00,,,0.00,Wunderground v.1.15,2013-05-29 03:58:00,
2013-05-28 23:02:00,60.1,59.5,29.66,NE,44,1.0,8.0,98,0.00,,,0.00,Wunderground v.1.15,2013-05-29 04:02:00,
2013-05-28 23:03:00,60.1,59.5,29.65,ENE,72,1.0,8.0,98,0.00,,,0.00,Wunderground v.1.15,2013-05-29 04:03:00,
2013-05-28 23:05:00,60.0,59.4,29.65,ENE,74,1.0,8.0,98,0.00,,,0.00,Wunderground v.1.15,2013-05-29 04:05:00,
2013-05-28 23:09:00,60.0,59.4,29.65,ENE,66,2.0,2.0,98,0.00,,,0.00,Wunderground v.1.15,2013-05-29 04:09:00,
2013-05-28 23:14:00,59.9,59.6,29.65,East,89,2.0,8.0,99,0.00,,,0.00,Wunderground v.1.15,2013-05-29 04:14:00,
2013-05-28 23:18:00,59.9,59.6,29.66,SE,131,1.0,8.0,99,0.00,,,0.00,Wunderground v.1.15,2013-05-29 04:18:00,
2013-05-28 23:20:00,59.8,59.5,29.66,SE,125,1.0,1.0,99,0.00,,,0.00,Wunderground v.1.15,2013-05-29 04:20:00,
2013-05-28 23:22:00,59.8,59.5,29.66,SE,133,0.0,8.0,99,0.00,,,0.00,Wunderground v.1.15,2013-05-29 04:22:00,
2013-05-28 23:24:00,59.7,59.4,29.66,SSW,205,0.0,8.0,99,0.00,,,0.00,Wunderground v.1.15,2013-05-29 04:24:00,
2013-05-28 23:25:00,59.7,59.4,29.66,ENE,77,0.0,8.0,99,0.00,,,0.00,Wunderground v.1.15,2013-05-29 04:25:00,
2013-05-28 23:31:00,59.7,59.4,29.66,SE,129,1.0,8.0,99,0.00,,,0.00,Wunderground v.1.15,2013-05-29 04:31:00,
2013-05-28 23:34:00,59.7,59.4,29.66,SE,142,1.0,8.0,99,0.00,,,0.00,Wunderground v.1.15,2013-05-29 04:34:00,
2013-05-28 23:36:00,59.7,59.4,29.65,SE,136,2.0,8.0,99,0.00,,,0.00,Wunderground v.1.15,2013-05-29 04:36:00,
2013-05-28 23:42:00,59.7,59.4,29.65,ESE,115,2.0,8.0,99,0.00,,,0.00,Wunderground v.1.15,2013-05-29 04:42:00,
2013-05-28 23:44:00,59.7,59.4,29.65,ESE,117,1.0,8.0,99,0.00,,,0.00,Wunderground v.1.15,2013-05-29 04:44:00,
2013-05-28 23:46:00,59.6,59.3,29.65,ESE,117,1.0,8.0,99,0.00,,,0.00,Wunderground v.1.15,2013-05-29 04:46:00,
2013-05-28 23:51:00,59.5,59.2,29.65,SE,139,1.0,8.0,99,0.00,,,0.00,Wunderground v.1.15,2013-05-29 04:51:00,
2013-05-28 23:53:00,59.4,59.1,29.65,SE,124,1.0,8.0,99,0.00,,,0.00,Wunderground v.1.15,2013-05-29 04:53:00,
2013-05-28 23:58:00,59.4,59.1,29.65,SSE,149,1.0,8.0,99,0.00,,,0.00,Wunderground v.1.15,2013-05-29 04:58:00,